Weather History for Missoula, MT

Change the Weather History Date:

Tuesday, August 19, 2014

  Actual Average Record
Temperature  
Mean Temperature 71 °F 67 °F  
Max Temperature 90 °F 84 °F 100 °F (1961)
Min Temperature 51 °F 50 °F 25 °F (1901)
Degree Days  
Heating Degree Days 0 1  
Month to date heating degree days 2 19  
Since 1 June heating degree days 185 217  
Since 1 July heating degree days 8 57  
Cooling Degree Days 6 4  
Month to date cooling degree days 127 95  
Year to date cooling degree days 367 289  
Since 1 June cooling degree days 367 283  
Growing Degree Days 20 (Base 50)    
Moisture  
Dew Point 45 °F    
Average Humidity 45    
Maximum Humidity 77    
Minimum Humidity 12    
Precipitation  
Precipitation 0.00 in 0.04 in 0.42 in (1906)
Month to date precipitation 0.47 0.69  
Year to date precipitation 9.55 9.53  
Snow  
Snow 0.00 in - - ()
Month to date snowfall 0.0  
Year to date snowfall 51.9  
Since 1 July snowfall 0.0  
Snow Depth 0.00 in    
Sea Level Pressure  
Sea Level Pressure 29.75 in    
Wind  
Wind Speed 5 mph (North)    
Max Wind Speed 33 mph    
Max Gust Speed 45 mph    
Visibility 10 miles    
Events      
T = Trace of Precipitation, MM = Missing Value Source: NWS Daily Summary

Daily Weather History Graph

Daily Weather History Graph

Search for Another Location

Airport:

Trip Planner

Search our weather history database for the weather conditions in past years. The results will help you decide how hot, cold, wet, or windy it might be!

Date:

Astronomy

Aug. 19, 2014 Rise Set
Actual Time 6:39 AM MDT 8:39 PM MDT
Civil Twilight 6:06 AM MDT 9:12 PM MDT
Nautical Twilight 5:25 AM MDT 9:52 PM MDT
Astronomical Twilight 4:40 AM MDT 10:37 PM MDT
Moon 1:27 AM MDT (8/19) 4:46 PM MDT (8/19)
Length of Visible Light 15h 06m
Length of Day
14h 00m
Waning Crescent, 28% of the Moon is Illuminated
Aug 19
Waning Crescent
Aug 25
New
Sep 2
First Quarter
Sep 8
Full
Sep 15
Last Quarter

Hourly Weather History & Observations

Time (MDT) Temp. Dew Point Humidity Pressure Visibility Wind Dir Wind Speed Gust Speed Precip Events Conditions
12:53 AM 64.9 °F 48.9 °F 56% 29.81 in 10.0 mi NE 3.5 mph - N/A   Clear
1:53 AM 61.0 °F 48.9 °F 64% 29.80 in 10.0 mi East 3.5 mph - N/A   Clear
2:53 AM 61.0 °F 48.0 °F 62% 29.80 in 10.0 mi Calm Calm - N/A   Clear
3:53 AM 59.0 °F 48.0 °F 67% 29.80 in 10.0 mi Calm Calm - N/A   Clear
4:53 AM 57.0 °F 48.0 °F 72% 29.81 in 10.0 mi SE 3.5 mph - N/A   Clear
5:53 AM 55.0 °F 46.9 °F 74% 29.81 in 10.0 mi Calm Calm - N/A   Clear
6:53 AM 53.1 °F 46.9 °F 80% 29.82 in 10.0 mi Calm Calm - N/A   Clear
7:53 AM 57.0 °F 48.9 °F 74% 29.82 in 10.0 mi Calm Calm - N/A   Clear
8:53 AM 60.1 °F 48.9 °F 67% 29.82 in 10.0 mi Calm Calm - N/A   Clear
9:53 AM 64.9 °F 48.0 °F 54% 29.82 in 10.0 mi Calm Calm - N/A   Clear
10:53 AM 68.0 °F 48.9 °F 50% 29.81 in 10.0 mi Calm Calm - N/A   Mostly Cloudy
11:53 AM 73.9 °F 45.0 °F 35% 29.77 in 10.0 mi Calm Calm - N/A   Clear
12:53 PM 79.0 °F 48.0 °F 34% 29.73 in 10.0 mi Calm Calm - N/A   Clear
1:53 PM 86.0 °F 46.0 °F 25% 29.70 in 10.0 mi NW 12.7 mph 20.7 mph N/A   Clear
2:53 PM 88.0 °F 42.1 °F 20% 29.67 in 10.0 mi Variable 6.9 mph - N/A   Clear
3:53 PM 90.0 °F 30.9 °F 12% 29.65 in 10.0 mi West 12.7 mph - N/A   Partly Cloudy
4:53 PM 89.1 °F 33.1 °F 14% 29.64 in 10.0 mi NW 15.0 mph - N/A   Partly Cloudy
5:53 PM 81.0 °F 43.0 °F 26% 29.70 in 10.0 mi NW 31.1 mph 44.9 mph N/A   Mostly Cloudy
6:42 PM 79.0 °F 43.0 °F 28% 29.76 in 10.0 mi North 20.7 mph 31.1 mph N/A   Scattered Clouds
6:53 PM 78.1 °F 42.1 °F 28% 29.71 in 10.0 mi North 17.3 mph 32.2 mph N/A   Partly Cloudy
7:53 PM 75.0 °F 42.1 °F 31% 29.71 in 10.0 mi North 8.1 mph - N/A   Clear
8:53 PM 68.0 °F 44.1 °F 42% 29.72 in 10.0 mi Variable 5.8 mph - N/A   Clear
9:53 PM 68.0 °F 44.1 °F 42% 29.72 in 10.0 mi North 4.6 mph - N/A   Clear
10:53 PM 64.9 °F 45.0 °F 48% 29.73 in 10.0 mi Calm Calm - N/A   Clear
11:53 PM 62.1 °F 45.0 °F 53% 29.73 in 10.0 mi Calm Calm - N/A   Clear